Year,Month,Day,Hour,Minute,Value (Times are PST for temperature in C)
2015,06,20,00,00,11.80
2015,06,20,00,01,11.80
2015,06,20,00,02,11.80
2015,06,20,00,03,11.70
2015,06,20,00,04,11.70
2015,06,20,00,05,11.70
2015,06,20,00,06,11.70
2015,06,20,00,07,11.60
2015,06,20,00,08,11.60
2015,06,20,00,09,11.60
2015,06,20,00,10,11.60
2015,06,20,00,11,11.60
2015,06,20,00,12,11.60
2015,06,20,00,13,11.50
2015,06,20,00,14,11.40
2015,06,20,00,15,11.40
2015,06,20,00,16,11.40
2015,06,20,00,17,11.40
2015,06,20,00,18,11.40
2015,06,20,00,19,11.40
2015,06,20,00,20,11.40
2015,06,20,00,21,11.40
2015,06,20,00,22,11.30
2015,06,20,00,23,11.30
2015,06,20,00,24,11.30
2015,06,20,00,25,11.30
2015,06,20,00,26,11.30
2015,06,20,00,27,11.30
2015,06,20,00,28,11.20
2015,06,20,00,29,11.20
2015,06,20,00,30,11.20
2015,06,20,00,31,11.20
2015,06,20,00,32,11.10
2015,06,20,00,33,11.10
2015,06,20,00,34,11.10
2015,06,20,00,35,11.10
2015,06,20,00,36,11.10
2015,06,20,00,37,11.10
2015,06,20,00,38,10.90
2015,06,20,00,39,10.90
2015,06,20,00,40,10.90
2015,06,20,00,41,10.90
2015,06,20,00,42,10.90
2015,06,20,00,43,10.90
2015,06,20,00,44,10.90
2015,06,20,00,45,10.90
2015,06,20,00,46,10.90
2015,06,20,00,47,10.80
2015,06,20,00,48,10.80
2015,06,20,00,49,10.80
2015,06,20,00,50,10.80
2015,06,20,00,51,10.80
2015,06,20,00,52,10.80
2015,06,20,00,53,10.80
2015,06,20,00,54,10.80
2015,06,20,00,55,10.70
2015,06,20,00,56,10.70
2015,06,20,00,57,10.70
2015,06,20,00,58,10.70
2015,06,20,00,59,10.70
2015,06,20,01,00,10.70
2015,06,20,01,01,10.70
2015,06,20,01,02,10.70
2015,06,20,01,03,10.70
2015,06,20,01,04,10.70
2015,06,20,01,05,10.70
2015,06,20,01,06,10.70
2015,06,20,01,07,10.60
2015,06,20,01,08,10.60
2015,06,20,01,09,10.60
2015,06,20,01,10,10.60
2015,06,20,01,11,10.60
2015,06,20,01,12,10.60
2015,06,20,01,13,10.60
2015,06,20,01,14,10.60
2015,06,20,01,15,10.50
2015,06,20,01,16,10.40
2015,06,20,01,17,10.40
2015,06,20,01,18,10.40
2015,06,20,01,19,10.40
2015,06,20,01,20,10.40
2015,06,20,01,21,10.40
2015,06,20,01,22,10.40
2015,06,20,01,23,10.30
2015,06,20,01,24,10.30
2015,06,20,01,25,10.30
2015,06,20,01,26,10.30
2015,06,20,01,27,10.30
2015,06,20,01,28,10.30
2015,06,20,01,29,10.30
2015,06,20,01,30,10.30
2015,06,20,01,31,10.30
2015,06,20,01,32,10.30
2015,06,20,01,33,10.20
2015,06,20,01,34,10.20
2015,06,20,01,35,10.20
2015,06,20,01,36,10.20
2015,06,20,01,37,10.10
2015,06,20,01,38,10.10
2015,06,20,01,39,10.10
2015,06,20,01,40,10.10
2015,06,20,01,41,10.10
2015,06,20,01,42,10.10
2015,06,20,01,43,10.10
2015,06,20,01,44,10.10
2015,06,20,01,45,10.10
2015,06,20,01,46,10.10
2015,06,20,01,47,10.10
2015,06,20,01,48,10.10
2015,06,20,01,49,10.10
2015,06,20,01,50,10.00
2015,06,20,01,51,9.90
2015,06,20,01,52,9.90
2015,06,20,01,53,9.90
2015,06,20,01,54,9.90
2015,06,20,01,55,9.90
2015,06,20,01,56,9.90
2015,06,20,01,57,9.90
2015,06,20,01,58,9.90
2015,06,20,01,59,9.90
2015,06,20,02,00,9.80
2015,06,20,02,01,9.80
2015,06,20,02,02,9.80
2015,06,20,02,03,9.80
2015,06,20,02,04,9.80
2015,06,20,02,05,9.70
2015,06,20,02,06,9.70
2015,06,20,02,07,9.70
2015,06,20,02,08,9.70
2015,06,20,02,09,9.70
2015,06,20,02,10,9.70
2015,06,20,02,11,9.70
2015,06,20,02,12,9.70
2015,06,20,02,13,9.70
2015,06,20,02,14,9.70
2015,06,20,02,15,9.70
2015,06,20,02,16,9.60
2015,06,20,02,17,9.60
2015,06,20,02,18,9.60
2015,06,20,02,19,9.60
2015,06,20,02,20,9.60
2015,06,20,02,21,9.60
2015,06,20,02,22,9.50
2015,06,20,02,23,9.50
2015,06,20,02,24,9.50
2015,06,20,02,25,9.50
2015,06,20,02,26,9.50
2015,06,20,02,27,9.50
2015,06,20,02,28,9.40
2015,06,20,02,29,9.40
2015,06,20,02,30,9.40
2015,06,20,02,31,9.40
2015,06,20,02,32,9.40
2015,06,20,02,33,9.40
2015,06,20,02,34,9.40
2015,06,20,02,35,9.40
2015,06,20,02,36,9.30
2015,06,20,02,37,9.30
2015,06,20,02,38,9.30
2015,06,20,02,39,9.30
2015,06,20,02,40,9.30
2015,06,20,02,41,9.30
2015,06,20,02,42,9.30
2015,06,20,02,43,9.30
2015,06,20,02,44,9.30
2015,06,20,02,45,9.20
2015,06,20,02,46,9.20
2015,06,20,02,47,9.20
2015,06,20,02,48,9.20
2015,06,20,02,49,9.20
2015,06,20,02,50,9.20
2015,06,20,02,51,9.20
2015,06,20,02,52,9.20
2015,06,20,02,53,9.20
2015,06,20,02,54,9.20
2015,06,20,02,55,9.20
2015,06,20,02,56,9.20
2015,06,20,02,57,9.20
2015,06,20,02,58,9.20
2015,06,20,02,59,9.20
2015,06,20,03,00,9.20
2015,06,20,03,01,9.20
2015,06,20,03,02,9.20
2015,06,20,03,03,9.20
2015,06,20,03,04,9.20
2015,06,20,03,05,9.20
2015,06,20,03,06,9.20
2015,06,20,03,07,9.20
2015,06,20,03,08,9.20
2015,06,20,03,09,9.20
2015,06,20,03,10,9.20
2015,06,20,03,11,9.20
2015,06,20,03,12,9.20
2015,06,20,03,13,9.20
2015,06,20,03,14,9.20
2015,06,20,03,15,9.20
2015,06,20,03,16,9.20
2015,06,20,03,17,9.20
2015,06,20,03,18,9.20
2015,06,20,03,19,9.20
2015,06,20,03,20,9.20
2015,06,20,03,21,9.10
2015,06,20,03,22,9.20
2015,06,20,03,23,9.20
2015,06,20,03,24,9.20
2015,06,20,03,25,9.20
2015,06,20,03,26,9.10
2015,06,20,03,27,9.10
2015,06,20,03,28,9.10
2015,06,20,03,29,9.10
2015,06,20,03,30,9.10
2015,06,20,03,31,9.10
2015,06,20,03,32,9.10
2015,06,20,03,33,9.10
2015,06,20,03,34,9.00
2015,06,20,03,35,9.00
2015,06,20,03,36,9.00
2015,06,20,03,37,9.00
2015,06,20,03,38,9.00
2015,06,20,03,39,9.00
2015,06,20,03,40,9.00
2015,06,20,03,41,9.00
2015,06,20,03,42,9.00
2015,06,20,03,43,9.00
2015,06,20,03,44,9.00
2015,06,20,03,45,9.00
2015,06,20,03,46,9.00
2015,06,20,03,47,9.00
2015,06,20,03,48,9.00
2015,06,20,03,49,9.00
2015,06,20,03,50,9.00
2015,06,20,03,51,9.00
2015,06,20,03,52,9.00
2015,06,20,03,53,8.90
2015,06,20,03,54,8.90
2015,06,20,03,55,8.90
2015,06,20,03,56,8.90
2015,06,20,03,57,8.90
2015,06,20,03,58,8.90
2015,06,20,03,59,8.90
2015,06,20,04,00,8.90
2015,06,20,04,01,8.90
2015,06,20,04,02,8.90
2015,06,20,04,03,8.90
2015,06,20,04,04,8.90
2015,06,20,04,05,8.90
2015,06,20,04,06,8.80
2015,06,20,04,07,8.80
2015,06,20,04,08,8.80
2015,06,20,04,09,8.80
2015,06,20,04,10,8.80
2015,06,20,04,11,8.80
2015,06,20,04,12,8.80
2015,06,20,04,13,8.80
2015,06,20,04,14,8.80
2015,06,20,04,15,8.80
2015,06,20,04,16,8.80
2015,06,20,04,17,8.80
2015,06,20,04,18,8.80
2015,06,20,04,19,8.70
2015,06,20,04,20,8.70
2015,06,20,04,21,8.70
2015,06,20,04,22,8.70
2015,06,20,04,23,8.70
2015,06,20,04,24,8.70
2015,06,20,04,25,8.70
2015,06,20,04,26,8.70
2015,06,20,04,27,8.70
2015,06,20,04,28,8.70
2015,06,20,04,29,8.70
2015,06,20,04,30,8.70
2015,06,20,04,31,8.70
2015,06,20,04,32,8.70
2015,06,20,04,33,8.70
2015,06,20,04,34,8.70
2015,06,20,04,35,8.70
2015,06,20,04,36,8.70
2015,06,20,04,37,8.60
2015,06,20,04,38,8.60
2015,06,20,04,39,8.60
2015,06,20,04,40,8.60
2015,06,20,04,41,8.60
2015,06,20,04,42,8.60
2015,06,20,04,43,8.60
2015,06,20,04,44,8.60
2015,06,20,04,45,8.60
2015,06,20,04,46,8.60
2015,06,20,04,47,8.60
2015,06,20,04,48,8.60
2015,06,20,04,49,8.70
2015,06,20,04,50,8.70
2015,06,20,04,51,8.70
2015,06,20,04,52,8.70
2015,06,20,04,53,8.70
2015,06,20,04,54,8.70
2015,06,20,04,55,8.70
2015,06,20,04,56,8.70
2015,06,20,04,57,8.70
2015,06,20,04,58,8.70
2015,06,20,04,59,8.70
2015,06,20,05,00,8.70
2015,06,20,05,01,8.70
2015,06,20,05,02,8.70
2015,06,20,05,03,8.70
2015,06,20,05,04,8.70
2015,06,20,05,05,8.70
2015,06,20,05,06,8.70
2015,06,20,05,07,8.70
2015,06,20,05,08,8.70
2015,06,20,05,09,8.70
2015,06,20,05,10,8.70
2015,06,20,05,11,8.70
2015,06,20,05,12,8.70
2015,06,20,05,13,8.70
2015,06,20,05,14,8.70
2015,06,20,05,15,8.70
2015,06,20,05,16,8.70
2015,06,20,05,17,8.70
2015,06,20,05,18,8.70
2015,06,20,05,19,8.70
2015,06,20,05,20,8.70
2015,06,20,05,21,8.70
2015,06,20,05,22,8.70
2015,06,20,05,23,8.70
2015,06,20,05,24,8.70
2015,06,20,05,25,8.70
2015,06,20,05,26,8.70
2015,06,20,05,27,8.70
2015,06,20,05,28,8.70
2015,06,20,05,29,8.70
2015,06,20,05,30,8.70
2015,06,20,05,31,8.70
2015,06,20,05,32,8.70
2015,06,20,05,33,8.70
2015,06,20,05,34,8.70
2015,06,20,05,35,8.70
2015,06,20,05,36,8.70
2015,06,20,05,37,8.70
2015,06,20,05,38,8.70
2015,06,20,05,39,8.70
2015,06,20,05,40,8.70
2015,06,20,05,41,8.70
2015,06,20,05,42,8.70
2015,06,20,05,43,8.70
2015,06,20,05,44,8.70
2015,06,20,05,45,8.70
2015,06,20,05,46,8.70
2015,06,20,05,47,8.70
2015,06,20,05,48,8.70
2015,06,20,05,49,8.70
2015,06,20,05,50,8.70
2015,06,20,05,51,8.70
2015,06,20,05,52,8.70
2015,06,20,05,53,8.70
2015,06,20,05,54,8.70
2015,06,20,05,55,8.70
2015,06,20,05,56,8.70
2015,06,20,05,57,8.70
2015,06,20,05,58,8.70
2015,06,20,05,59,8.70
2015,06,20,06,00,8.70
2015,06,20,06,01,8.70
2015,06,20,06,02,8.70
2015,06,20,06,03,8.70
2015,06,20,06,04,8.70
2015,06,20,06,05,8.70
2015,06,20,06,06,8.70
2015,06,20,06,07,8.70
2015,06,20,06,08,8.70
2015,06,20,06,09,8.70
2015,06,20,06,10,8.70
2015,06,20,06,11,8.70
2015,06,20,06,12,8.70
2015,06,20,06,13,8.70
2015,06,20,06,14,8.70
2015,06,20,06,15,8.70
2015,06,20,06,16,8.70
2015,06,20,06,17,8.70
2015,06,20,06,18,8.70
2015,06,20,06,19,8.70
2015,06,20,06,20,8.80
2015,06,20,06,21,8.80
2015,06,20,06,22,8.80
2015,06,20,06,23,8.80
2015,06,20,06,24,8.80
2015,06,20,06,25,8.90
2015,06,20,06,26,8.90
2015,06,20,06,27,8.90
2015,06,20,06,28,9.00
2015,06,20,06,29,9.00
2015,06,20,06,30,9.00
2015,06,20,06,31,9.00
2015,06,20,06,32,9.10
2015,06,20,06,33,9.10
2015,06,20,06,34,9.10
2015,06,20,06,35,9.10
2015,06,20,06,36,9.10
2015,06,20,06,37,9.20
2015,06,20,06,38,9.20
2015,06,20,06,39,9.20
2015,06,20,06,40,9.20
2015,06,20,06,41,9.20
2015,06,20,06,42,9.20
2015,06,20,06,43,9.20
2015,06,20,06,44,9.20
2015,06,20,06,45,9.30
2015,06,20,06,46,9.30
2015,06,20,06,47,9.30
2015,06,20,06,48,9.30
2015,06,20,06,49,9.30
2015,06,20,06,50,9.30
2015,06,20,06,51,9.40
2015,06,20,06,52,9.40
2015,06,20,06,53,9.40
2015,06,20,06,54,9.40
2015,06,20,06,55,9.50
2015,06,20,06,56,9.50
2015,06,20,06,57,9.50
2015,06,20,06,58,9.60
2015,06,20,06,59,9.60
2015,06,20,07,00,9.60
2015,06,20,07,01,9.70
2015,06,20,07,02,9.70
2015,06,20,07,03,9.70
2015,06,20,07,04,9.70
2015,06,20,07,05,9.70
2015,06,20,07,06,9.80
2015,06,20,07,07,9.80
2015,06,20,07,08,9.80
2015,06,20,07,09,9.90
2015,06,20,07,10,9.90
2015,06,20,07,11,9.90
2015,06,20,07,12,10.00
2015,06,20,07,13,10.10
2015,06,20,07,14,10.10
2015,06,20,07,15,10.10
2015,06,20,07,16,10.10
2015,06,20,07,17,10.10
2015,06,20,07,18,10.20
2015,06,20,07,19,10.20
2015,06,20,07,20,10.20
2015,06,20,07,21,10.30
2015,06,20,07,22,10.30
2015,06,20,07,23,10.30
2015,06,20,07,24,10.40
2015,06,20,07,25,10.40
2015,06,20,07,26,10.50
2015,06,20,07,27,10.60
2015,06,20,07,28,10.60
2015,06,20,07,29,10.60
2015,06,20,07,30,10.70
2015,06,20,07,31,10.70
2015,06,20,07,32,10.80
2015,06,20,07,33,10.80
2015,06,20,07,34,10.90
2015,06,20,07,35,10.90
2015,06,20,07,36,10.90
2015,06,20,07,37,11.00
2015,06,20,07,38,11.10
2015,06,20,07,39,11.10
2015,06,20,07,40,11.20
2015,06,20,07,41,11.20
2015,06,20,07,42,11.30
2015,06,20,07,43,11.30
2015,06,20,07,44,11.40
2015,06,20,07,45,11.40
2015,06,20,07,46,11.50
2015,06,20,07,47,11.60
2015,06,20,07,48,11.60
2015,06,20,07,49,11.70
2015,06,20,07,50,11.70
2015,06,20,07,51,11.80
2015,06,20,07,52,11.80
2015,06,20,07,53,11.80
2015,06,20,07,54,11.90
2015,06,20,07,55,11.90
2015,06,20,07,56,12.00
2015,06,20,07,57,12.00
2015,06,20,07,58,12.10
2015,06,20,07,59,12.10
2015,06,20,08,00,12.20
2015,06,20,08,01,12.20
2015,06,20,08,02,12.30
2015,06,20,08,03,12.40
2015,06,20,08,04,12.50
2015,06,20,08,05,12.60
2015,06,20,08,06,12.60
2015,06,20,08,07,12.70
2015,06,20,08,08,12.70
2015,06,20,08,09,12.80
2015,06,20,08,10,12.80
2015,06,20,08,11,12.90
2015,06,20,08,12,13.00
2015,06,20,08,13,13.00
2015,06,20,08,14,13.10
2015,06,20,08,15,13.10
2015,06,20,08,16,13.20
2015,06,20,08,17,13.30
2015,06,20,08,18,13.30
2015,06,20,08,19,13.40
2015,06,20,08,20,13.50
2015,06,20,08,21,13.50
2015,06,20,08,22,13.60
2015,06,20,08,23,13.70
2015,06,20,08,24,13.70
2015,06,20,08,25,13.80
2015,06,20,08,26,13.90
2015,06,20,08,27,13.90
2015,06,20,08,28,13.90
2015,06,20,08,29,14.00
2015,06,20,08,30,14.00
2015,06,20,08,31,14.10
2015,06,20,08,32,14.10
2015,06,20,08,33,14.10
2015,06,20,08,34,14.20
2015,06,20,08,35,14.20
2015,06,20,08,36,14.20
2015,06,20,08,37,14.20
2015,06,20,08,38,14.20
2015,06,20,08,39,14.20
2015,06,20,08,40,14.30
2015,06,20,08,41,14.30
2015,06,20,08,42,14.40
2015,06,20,08,43,14.40
2015,06,20,08,44,14.40
2015,06,20,08,45,14.40
2015,06,20,08,46,14.40
2015,06,20,08,47,14.50
2015,06,20,08,48,14.50
2015,06,20,08,49,14.50
2015,06,20,08,50,14.50
2015,06,20,08,51,14.60
2015,06,20,08,52,14.60
2015,06,20,08,53,14.60
2015,06,20,08,54,14.60
2015,06,20,08,55,14.70
2015,06,20,08,56,14.70
2015,06,20,08,57,14.70
2015,06,20,08,58,14.70
2015,06,20,08,59,14.70
2015,06,20,09,00,14.70
2015,06,20,09,01,14.70
2015,06,20,09,02,14.70
2015,06,20,09,03,14.80
2015,06,20,09,04,14.80
2015,06,20,09,05,14.80
2015,06,20,09,06,14.80
2015,06,20,09,07,14.80
2015,06,20,09,08,14.90
2015,06,20,09,09,14.90
2015,06,20,09,10,14.90
2015,06,20,09,11,15.00
2015,06,20,09,12,15.00
2015,06,20,09,13,15.00
2015,06,20,09,14,15.10
2015,06,20,09,15,15.10
2015,06,20,09,16,15.20
2015,06,20,09,17,15.20
2015,06,20,09,18,15.20
2015,06,20,09,19,15.30
2015,06,20,09,20,15.30
2015,06,20,09,21,15.30
2015,06,20,09,22,15.40
2015,06,20,09,23,15.40
2015,06,20,09,24,15.40
2015,06,20,09,25,15.50
2015,06,20,09,26,15.50
2015,06,20,09,27,15.60
2015,06,20,09,28,15.60
2015,06,20,09,29,15.60
2015,06,20,09,30,15.70
2015,06,20,09,31,15.70
2015,06,20,09,32,15.80
2015,06,20,09,33,15.80
2015,06,20,09,34,15.80
2015,06,20,09,35,15.80
2015,06,20,09,36,15.80
2015,06,20,09,37,15.80
2015,06,20,09,38,15.80
2015,06,20,09,39,15.90
2015,06,20,09,40,15.90
2015,06,20,09,41,15.90
2015,06,20,09,42,15.90
2015,06,20,09,43,15.90
2015,06,20,09,44,16.00
2015,06,20,09,45,16.10
2015,06,20,09,46,16.10
2015,06,20,09,47,16.10
2015,06,20,09,48,16.10
2015,06,20,09,49,16.10
2015,06,20,09,50,16.10
2015,06,20,09,51,16.10
2015,06,20,09,52,16.10
2015,06,20,09,53,16.10
2015,06,20,09,54,16.10
2015,06,20,09,55,16.10
2015,06,20,09,56,16.10
2015,06,20,09,57,16.10
2015,06,20,09,58,16.10
2015,06,20,09,59,16.10
2015,06,20,10,00,16.20
2015,06,20,10,01,16.20
2015,06,20,10,02,16.20
2015,06,20,10,03,16.20
2015,06,20,10,04,16.20
2015,06,20,10,05,16.30
2015,06,20,10,06,16.30
2015,06,20,10,07,16.30
2015,06,20,10,08,16.30
2015,06,20,10,09,16.40
2015,06,20,10,10,16.40
2015,06,20,10,11,16.40
2015,06,20,10,12,16.40
2015,06,20,10,13,16.40
2015,06,20,10,14,16.50
2015,06,20,10,15,16.60
2015,06,20,10,16,16.60
2015,06,20,10,17,16.60
2015,06,20,10,18,16.70
2015,06,20,10,19,16.70
2015,06,20,10,20,16.70
2015,06,20,10,21,16.70
2015,06,20,10,22,16.70
2015,06,20,10,23,16.70
2015,06,20,10,24,16.70
2015,06,20,10,25,16.70
2015,06,20,10,26,16.80
2015,06,20,10,27,16.80
2015,06,20,10,28,16.80
2015,06,20,10,29,16.90
2015,06,20,10,30,16.90
2015,06,20,10,31,16.90
2015,06,20,10,32,17.00
2015,06,20,10,33,17.00
2015,06,20,10,34,17.10
2015,06,20,10,35,17.10
2015,06,20,10,36,17.20
2015,06,20,10,37,17.20
2015,06,20,10,38,17.20
2015,06,20,10,39,17.20
2015,06,20,10,40,17.20
2015,06,20,10,41,17.20
2015,06,20,10,42,17.20
2015,06,20,10,43,17.30
2015,06,20,10,44,17.30
2015,06,20,10,45,17.30
2015,06,20,10,46,17.30
2015,06,20,10,47,17.30
2015,06,20,10,48,17.30
2015,06,20,10,49,17.30
2015,06,20,10,50,17.30
2015,06,20,10,51,17.30
2015,06,20,10,52,17.30
2015,06,20,10,53,17.30
2015,06,20,10,54,17.30
2015,06,20,10,55,17.40
2015,06,20,10,56,17.40
2015,06,20,10,57,17.40
2015,06,20,10,58,17.40
2015,06,20,10,59,17.40
2015,06,20,11,00,17.50
2015,06,20,11,01,17.50
2015,06,20,11,02,17.50
2015,06,20,11,03,17.50
2015,06,20,11,04,17.60
2015,06,20,11,05,17.60
2015,06,20,11,06,17.60
2015,06,20,11,07,17.70
2015,06,20,11,08,17.70
2015,06,20,11,09,17.70
2015,06,20,11,10,17.70
2015,06,20,11,11,17.70
2015,06,20,11,12,17.70
2015,06,20,11,13,17.70
2015,06,20,11,14,17.70
2015,06,20,11,15,17.70
2015,06,20,11,16,17.60
2015,06,20,11,17,17.60
2015,06,20,11,18,17.60
2015,06,20,11,19,17.50
2015,06,20,11,20,17.50
2015,06,20,11,21,17.50
2015,06,20,11,22,17.50
2015,06,20,11,23,17.50
2015,06,20,11,24,17.50
2015,06,20,11,25,17.50
2015,06,20,11,26,17.60
2015,06,20,11,27,17.60
2015,06,20,11,28,17.60
2015,06,20,11,29,17.60
2015,06,20,11,30,17.60
2015,06,20,11,31,17.60
2015,06,20,11,32,17.60
2015,06,20,11,33,17.60
2015,06,20,11,34,17.60
2015,06,20,11,35,17.60
2015,06,20,11,36,17.60
2015,06,20,11,37,17.60
2015,06,20,11,38,17.60
2015,06,20,11,39,17.50
2015,06,20,11,40,17.60
2015,06,20,11,41,17.60
2015,06,20,11,42,17.60
2015,06,20,11,43,17.60
2015,06,20,11,44,17.60
2015,06,20,11,45,17.60
2015,06,20,11,46,17.70
2015,06,20,11,47,17.70
2015,06,20,11,48,17.70
2015,06,20,11,49,17.70
2015,06,20,11,50,17.60
2015,06,20,11,51,17.60
2015,06,20,11,52,17.60
2015,06,20,11,53,17.60
2015,06,20,11,54,17.60
2015,06,20,11,55,17.60
2015,06,20,11,56,17.60
2015,06,20,11,57,17.70
2015,06,20,11,58,17.70
2015,06,20,11,59,17.70
2015,06,20,12,00,17.80
2015,06,20,12,01,17.80
2015,06,20,12,02,17.90
2015,06,20,12,03,17.90
2015,06,20,12,04,17.90
2015,06,20,12,05,18.00
2015,06,20,12,06,18.10
2015,06,20,12,07,18.10
2015,06,20,12,08,18.10
2015,06,20,12,09,18.20
2015,06,20,12,10,18.20
2015,06,20,12,11,18.20
2015,06,20,12,12,18.20
2015,06,20,12,13,18.20
2015,06,20,12,14,18.20
2015,06,20,12,15,18.20
2015,06,20,12,16,18.20
2015,06,20,12,17,18.20
2015,06,20,12,18,18.20
2015,06,20,12,19,18.10
2015,06,20,12,20,18.10
2015,06,20,12,21,18.10
2015,06,20,12,22,18.00
2015,06,20,12,23,17.90
2015,06,20,12,24,17.90
2015,06,20,12,25,17.90
2015,06,20,12,26,17.90
2015,06,20,12,27,17.90
2015,06,20,12,28,18.00
2015,06,20,12,29,18.10
2015,06,20,12,30,18.10
2015,06,20,12,31,18.20
2015,06,20,12,32,18.20
2015,06,20,12,33,18.20
2015,06,20,12,34,18.20
2015,06,20,12,35,18.20
2015,06,20,12,36,18.20
2015,06,20,12,37,18.20
2015,06,20,12,38,18.20
2015,06,20,12,39,18.20
2015,06,20,12,40,18.20
2015,06,20,12,41,18.20
2015,06,20,12,42,18.20
2015,06,20,12,43,18.20
2015,06,20,12,44,18.20
2015,06,20,12,45,18.20
2015,06,20,12,46,18.20
2015,06,20,12,47,18.20
2015,06,20,12,48,18.20
2015,06,20,12,49,18.20
2015,06,20,12,50,18.20
2015,06,20,12,51,18.20
2015,06,20,12,52,18.20
2015,06,20,12,53,18.20
2015,06,20,12,54,18.20
2015,06,20,12,55,18.20
2015,06,20,12,56,18.30
2015,06,20,12,57,18.30
2015,06,20,12,58,18.30
2015,06,20,12,59,18.40
2015,06,20,13,00,18.40
2015,06,20,13,01,18.40
2015,06,20,13,02,18.50
2015,06,20,13,03,18.60
2015,06,20,13,04,18.70
2015,06,20,13,05,18.70
2015,06,20,13,06,18.80
2015,06,20,13,07,18.90
2015,06,20,13,08,18.90
2015,06,20,13,09,19.10
2015,06,20,13,10,19.20
2015,06,20,13,11,19.40
2015,06,20,13,12,19.50
2015,06,20,13,13,19.60
2015,06,20,13,14,19.60
2015,06,20,13,15,19.70
2015,06,20,13,16,19.80
2015,06,20,13,17,19.90
2015,06,20,13,18,20.00
2015,06,20,13,19,20.10
2015,06,20,13,20,20.10
2015,06,20,13,21,20.20
2015,06,20,13,22,20.20
2015,06,20,13,23,20.20
2015,06,20,13,24,20.20
2015,06,20,13,25,20.20
2015,06,20,13,26,20.20
2015,06,20,13,27,20.20
2015,06,20,13,28,20.20
2015,06,20,13,29,20.20
2015,06,20,13,30,20.30
2015,06,20,13,31,20.30
2015,06,20,13,32,20.40
2015,06,20,13,33,20.40
2015,06,20,13,34,20.50
2015,06,20,13,35,20.50
2015,06,20,13,36,20.60
2015,06,20,13,37,20.60
2015,06,20,13,38,20.60
2015,06,20,13,39,20.60
2015,06,20,13,40,20.60
2015,06,20,13,41,20.50
2015,06,20,13,42,20.50
2015,06,20,13,43,20.50
2015,06,20,13,44,20.40
2015,06,20,13,45,20.30
2015,06,20,13,46,20.30
2015,06,20,13,47,20.20
2015,06,20,13,48,20.20
2015,06,20,13,49,20.20
2015,06,20,13,50,20.20
2015,06,20,13,51,20.20
2015,06,20,13,52,20.30
2015,06,20,13,53,20.30
2015,06,20,13,54,20.40
2015,06,20,13,55,20.50
2015,06,20,13,56,20.60
2015,06,20,13,57,20.60
2015,06,20,13,58,20.70
2015,06,20,13,59,20.80
2015,06,20,14,00,20.80
2015,06,20,14,01,20.80
2015,06,20,14,02,20.80
2015,06,20,14,03,20.80
2015,06,20,14,04,20.80
2015,06,20,14,05,20.70
2015,06,20,14,06,20.70
2015,06,20,14,07,20.70
2015,06,20,14,08,20.70
2015,06,20,14,09,20.80
2015,06,20,14,10,20.80
2015,06,20,14,11,20.90
2015,06,20,14,12,20.90
2015,06,20,14,13,20.90
2015,06,20,14,14,21.00
2015,06,20,14,15,21.00
2015,06,20,14,16,21.00
2015,06,20,14,17,21.00
2015,06,20,14,18,21.10
2015,06,20,14,19,21.10
2015,06,20,14,20,21.10
2015,06,20,14,21,21.00
2015,06,20,14,22,21.00
2015,06,20,14,23,21.00
2015,06,20,14,24,20.90
2015,06,20,14,25,20.90
2015,06,20,14,26,20.90
2015,06,20,14,27,20.90
2015,06,20,14,28,20.90
2015,06,20,14,29,20.90
2015,06,20,14,30,20.90
2015,06,20,14,31,20.80
2015,06,20,14,32,20.80
2015,06,20,14,33,20.80
2015,06,20,14,34,20.90
2015,06,20,14,35,20.90
2015,06,20,14,36,20.90
2015,06,20,14,37,20.90
2015,06,20,14,38,20.90
2015,06,20,14,39,21.00
2015,06,20,14,40,21.00
2015,06,20,14,41,21.00
2015,06,20,14,42,20.90
2015,06,20,14,43,20.90
2015,06,20,14,44,20.90
2015,06,20,14,45,20.80
2015,06,20,14,46,20.80
2015,06,20,14,47,20.80
2015,06,20,14,48,20.90
2015,06,20,14,49,20.90
2015,06,20,14,50,20.90
2015,06,20,14,51,20.90
2015,06,20,14,52,20.90
2015,06,20,14,53,20.90
2015,06,20,14,54,20.90
2015,06,20,14,55,20.90
2015,06,20,14,56,20.90
2015,06,20,14,57,20.80
2015,06,20,14,58,20.80
2015,06,20,14,59,20.80
2015,06,20,15,00,20.80
2015,06,20,15,01,20.80
2015,06,20,15,02,20.80
2015,06,20,15,03,20.80
2015,06,20,15,04,20.70
2015,06,20,15,05,20.70
2015,06,20,15,06,20.80
2015,06,20,15,07,20.80
2015,06,20,15,08,20.80
2015,06,20,15,09,20.80
2015,06,20,15,10,20.90
2015,06,20,15,11,20.90
2015,06,20,15,12,20.90
2015,06,20,15,13,20.90
2015,06,20,15,14,21.00
2015,06,20,15,15,21.00
2015,06,20,15,16,21.00
2015,06,20,15,17,21.00
2015,06,20,15,18,21.00
2015,06,20,15,19,21.00
2015,06,20,15,20,20.90
2015,06,20,15,21,20.90
2015,06,20,15,22,21.00
2015,06,20,15,23,20.90
2015,06,20,15,24,20.90
2015,06,20,15,25,20.90
2015,06,20,15,26,20.90
2015,06,20,15,27,20.90
2015,06,20,15,28,20.90
2015,06,20,15,29,20.90
2015,06,20,15,30,20.90
2015,06,20,15,31,21.00
2015,06,20,15,32,21.00
2015,06,20,15,33,21.10
2015,06,20,15,34,21.10
2015,06,20,15,35,21.20
2015,06,20,15,36,21.20
2015,06,20,15,37,21.30
2015,06,20,15,38,21.30
2015,06,20,15,39,21.30
2015,06,20,15,40,21.30
2015,06,20,15,41,21.30
2015,06,20,15,42,21.30
2015,06,20,15,43,21.30
2015,06,20,15,44,21.40
2015,06,20,15,45,21.40
2015,06,20,15,46,21.40
2015,06,20,15,47,21.40
2015,06,20,15,48,21.40
2015,06,20,15,49,21.40
2015,06,20,15,50,21.40
2015,06,20,15,51,21.50
2015,06,20,15,52,21.60
2015,06,20,15,53,21.60
2015,06,20,15,54,21.60
2015,06,20,15,55,21.60
2015,06,20,15,56,21.60
2015,06,20,15,57,21.60
2015,06,20,15,58,21.60
2015,06,20,15,59,21.60
2015,06,20,16,00,21.60
2015,06,20,16,01,21.60
2015,06,20,16,02,21.60
2015,06,20,16,03,21.60
2015,06,20,16,04,21.60
2015,06,20,16,05,21.60
2015,06,20,16,06,21.60
2015,06,20,16,07,21.60
2015,06,20,16,08,21.60
2015,06,20,16,09,21.50
2015,06,20,16,10,21.40
2015,06,20,16,11,21.40
2015,06,20,16,12,21.40
2015,06,20,16,13,21.40
2015,06,20,16,14,21.40
2015,06,20,16,15,21.30
2015,06,20,16,16,21.30
2015,06,20,16,17,21.30
2015,06,20,16,18,21.30
2015,06,20,16,19,21.40
2015,06,20,16,20,21.40
2015,06,20,16,21,21.40
2015,06,20,16,22,21.40
2015,06,20,16,23,21.40
2015,06,20,16,24,21.40
2015,06,20,16,25,21.40
2015,06,20,16,26,21.40
2015,06,20,16,27,21.40
2015,06,20,16,28,21.40
2015,06,20,16,29,21.40
2015,06,20,16,30,21.40
2015,06,20,16,31,21.40
2015,06,20,16,32,21.40
2015,06,20,16,33,21.40
2015,06,20,16,34,21.40
2015,06,20,16,35,21.40
2015,06,20,16,36,21.50
2015,06,20,16,37,21.60
2015,06,20,16,38,21.60
2015,06,20,16,39,21.50
2015,06,20,16,40,21.40
2015,06,20,16,41,21.40
2015,06,20,16,42,21.50
2015,06,20,16,43,21.60
2015,06,20,16,44,21.60
2015,06,20,16,45,21.60
2015,06,20,16,46,21.60
2015,06,20,16,47,21.60
2015,06,20,16,48,21.60
2015,06,20,16,49,21.50
2015,06,20,16,50,21.40
2015,06,20,16,51,21.40
2015,06,20,16,52,21.40
2015,06,20,16,53,21.30
2015,06,20,16,54,21.30
2015,06,20,16,55,21.30
2015,06,20,16,56,21.10
2015,06,20,16,57,21.00
2015,06,20,16,58,20.80
2015,06,20,16,59,20.70
2015,06,20,17,00,20.50
2015,06,20,17,01,20.30
2015,06,20,17,02,20.10
2015,06,20,17,03,20.00
2015,06,20,17,04,19.80
2015,06,20,17,05,19.60
2015,06,20,17,06,19.30
2015,06,20,17,07,19.20
2015,06,20,17,08,19.10
2015,06,20,17,09,18.90
2015,06,20,17,10,18.90
2015,06,20,17,11,18.80
2015,06,20,17,12,18.70
2015,06,20,17,13,18.60
2015,06,20,17,14,18.60
2015,06,20,17,15,18.50
2015,06,20,17,16,18.40
2015,06,20,17,17,18.40
2015,06,20,17,18,18.30
2015,06,20,17,19,18.20
2015,06,20,17,20,18.00
2015,06,20,17,21,17.90
2015,06,20,17,22,17.90
2015,06,20,17,23,17.80
2015,06,20,17,24,17.70
2015,06,20,17,25,17.70
2015,06,20,17,26,17.70
2015,06,20,17,27,17.60
2015,06,20,17,28,17.60
2015,06,20,17,29,17.60
2015,06,20,17,30,17.60
2015,06,20,17,31,17.60
2015,06,20,17,32,17.60
2015,06,20,17,33,17.60